Temp
13 13 14 14 15 16 16 16 16 17 17 19 19 18 18 18 19 19 20 21 20 19 19 18 16 15 14 14 12 12 11 11 14 15 14 12 12 12 12 11 12 13 12 11
12 13 13 13 15 15 16 16 16 17 17 18 18 18 17 17 18 18 17 19 20 20 20 19 18 17 16 18 17 14 14 17 12 12 13 14 12 12 12 12 11 10 11 10
11 12 12 12 14 15 16 16 16 16 17 18 18 18 17 16 16 16 15 15 16 17 18 18 17 17 16 16 14 16 17 16 14 12 12 11 10 9 11 11 10 11 10 10
11 9 10 14 15 16 15 16 16 16 16 16 16 15 16 15 14 14 13 14 14 15 17 16 17 17 16 16 15 17 18 15 13 13 13 11 10 11 10 9 9 9 9 8
10 11 13 14 14 14 14 15 15 15 15 15 15 15 17 14 12 12 12 12 12 13 13 16 18 17 15 16 15 14 14 15 13 12 12 11 11 12 11 9 9 9 9 9
8 10 10 14 13 13 14 14 15 14 14 14 14 14 17 12 11 11 11 11 10 10 11 12 13 14 16 16 15 14 14 13 13 12 11 11 10 10 9 9 9 9 10 10
8 9 11 13 13 13 12 12 12 12 13 13 14 13 12 11 10 10 10 9 8 9 8 11 11 12 14 13 14 13 12 12 11 10 10 10 10 10 10 10 10 9 9 9
9 8 9 11 12 12 10 10 9 10 10 11 11 11 10 10 9 8 8 7 6 7 5 8 9 8 9 10 13 12 12 11 10 11 10 9 9 10 10 9 9 9 8 8
11 11 11 10 9 7 7 7 7 7 7 7 8 8 7 7 5 5 7 4 4 6 7 6 7 7 7 7 8 9 9 9 9 9 9 9 9 9 8 8 8 8 7 6
10 12 12 9 7 6 6 5 5 4 4 4 5 5 5 4 3 3 8 5 0 5 7 6 4 4 6 7 8 8 8 8 8 7 7 7 7 6 6 6 5 4 4 2
11 12 10 7 5 5 5 4 4 3 2 2 2 2 2 2 1 3 4 3 0 2 6 5 3 3 4 5 6 7 7 6 6 6 6 6 4 2 2 2 2 2 1 1
10 7 7 7 4 3 4 3 2 1 1 -0 -1 -2 -2 -1 -3 0 6 1 -1 0 1 3 1 1 2 3 4 5 5 4 4 3 2 2 2 1 -1 -1 -0 -1 -1 -1
7 4 5 4 2 1 1 0 -1 -0 -2 -2 -3 -4 -4 -4 -3 -3 -1 -1 -3 -3 -2 -1 -1 -0 -0 -1 1 1 2 0 0 -0 -1 -2 -1 -2 -2 -4 -3 -3 -3 -3
1 2 4 2 2 -1 -1 -2 -2 -3 -4 -5 -5 -6 -7 -7 -6 -5 -6 -5 -5 -4 -3 -3 -2 -3 -4 -3 -1 -1 -1 -2 -3 -4 -4 -4 -5 -5 -5 -5 -5 -7 -7 -7
-2 -2 -1 -1 -2 -2 -2 -4 -4 -5 -6 -6 -7 -7 -7 -7 -7 -9 -8 -7 -6 -5 -5 -5 -5 -5 -4 -4 -3 -3 -3 -4 -4 -4 -5 -5 -5 -6 -6 -7 -8 -9 -9 -9
-2 -2 -2 -2 -3 -4 -5 -6 -6 -8 -8 -9 -9 -9 -9 -9 -9 -8 -8 -7 -6 -7 -7 -7 -7 -6 -6 -5 -5 -5 -6 -5 -5 -6 -6 -6 -7 -8 -9 -9 -10 -11 -12 -12
-2 -3 -4 -6 -6 -7 -7 -8 -9 -9 -9 -10 -11 -11 -11 -9 -9 -8 -8 -8 -8 -8 -8 -8 -8 -7 -7 -7 -7 -7 -7 -7 -7 -7 -8 -8 -9 -10 -11 -12 -13 -13 -12 -12
-7 -7 -7 -7 -7 -8 -9 -10 -10 -10 -10 -9 -9 -9 -9 -8 -9 -10 -10 -9 -9 -9 -9 -9 -9 -8 -8 -8 -8 -8 -8 -9 -9 -9 -10 -11 -12 -13 -14 -14 -14 -15 -15 -14
-8 -8 -9 -9 -10 -10 -10 -10 -10 -10 -10 -9 -9 -9 -10 -10 -10 -10 -10 -10 -10 -10 -11 -11 -10 -9 -9 -9 -9 -9 -10 -11 -12 -12 -13 -13 -14 -15 -16 -16 -16 -17 -17 -17
-10 -11 -11 -10 -10 -9 -10 -10 -10 -10 -10 -10 -10 -10 -11 -11 -11 -11 -11 -11 -13 -13 -13 -12 -11 -11 -12 -12 -11 -11 -12 -12 -13 -13 -14 -17 -17 -17 -17 -17 -18 -18 -18 -19
-10 -10 -10 -10 -10 -10 -10 -10 -10 -10 -11 -11 -10 -11 -11 -12 -12 -13 -14 -13 -14 -14 -13 -13 -12 -13 -13 -13 -13 -13 -14 -14 -15 -16 -17 -17 -18 -18 -19 -19 -19 -20 -20 -20
-10 -10 -10 -10 -10 -10 -10 -10 -10 -11 -11 -11 -12 -12 -13 -13 -13 -13 -13 -15 -15 -14 -14 -14 -14 -14 -14 -14 -14 -14 -15 -15 -15 -16 -17 -18 -19 -19 -19 -19 -20 -21 -21 -21
-10 -10 -10 -10 -10 -11 -11 -11 -11 -12 -12 -12 -13 -13 -14 -16 -17 -17 -17 -16 -17 -16 -16 -16 -16 -16 -16 -16 -16 -17 -17 -17 -18 -18 -18 -18 -19 -19 -20 -19 -20 -20 -20 -20
-10 -11 -11 -12 -12 -13 -14 -15 -14 -13 -13 -14 -14 -15 -17 -18 -18 -19 -18 -17 -17 -17 -17 -17 -17 -17 -17 -17 -17 -17 -18 -18 -18 -18 -19 -19 -19 -19 -19 -19 -20 -20 -20 -20
-11 -12 -13 -13 -14 -14 -15 -15 -15 -15 -16 -17 -17 -18 -18 -18 -18 -19 -18 -18 -17 -17 -17 -17 -17 -17 -17 -17 -18 -18 -18 -18 -19 -19 -19 -20 -20 -20 -20 -20 -20 -20 -20 -20
-12 -13 -13 -14 -14 -15 -15 -16 -16 -17 -17 -18 -18 -19 -18 -18 -18 -19 -18 -17 -17 -18 -18 -18 -18 -18 -18 -18 -19 -19 -19 -20 -20 -20 -20 -20 -20 -21 -21 -21 -21 -21 -21 -21
-12 -14 -14 -15 -14 -15 -16 -16 -17 -18 -18 -19 -19 -19 -19 -19 -18 -18 -18 -18 -18 -18 -18 -18 -19 -19 -19 -19 -20 -20 -20 -20 -20 -21 -21 -21 -21 -21 -21 -21 -21 -22 -22 -22
Height
1419 1419 1419 1419 1418 1417 1418 1417 1421 1412 1415 1409 1408 1414 1413 1409 1405 1405 1403 1403 1404 1404 1405 1404 1404 1405 1405 1407 1409 1412 1416 1418 1417 1421 1426 1431 1435 1438 1443 1446 1448 1452 1455 1456
1424 1421 1422 1423 1418 1416 1415 1413 1413 1411 1411 1410 1411 1411 1411 1409 1406 1403 1403 1401 1401 1400 1399 1399 1399 1398 1398 1399 1400 1402 1405 1405 1411 1415 1417 1419 1424 1428 1433 1436 1439 1443 1446 1447
1427 1424 1425 1426 1415 1412 1411 1409 1409 1413 1407 1411 1410 1408 1409 1408 1407 1405 1402 1397 1396 1396 1395 1394 1394 1395 1394 1393 1395 1395 1397 1399 1402 1405 1407 1410 1414 1418 1421 1424 1429 1430 1433 1436
1428 1434 1432 1408 1407 1407 1409 1408 1408 1410 1412 1413 1413 1411 1410 1411 1409 1405 1402 1397 1392 1389 1387 1389 1388 1387 1386 1390 1388 1387 1388 1391 1394 1396 1399 1403 1406 1408 1412 1415 1417 1421 1424 1426
1431 1424 1412 1407 1409 1412 1410 1408 1413 1412 1413 1413 1413 1411 1404 1409 1410 1407 1403 1398 1393 1389 1386 1381 1380 1381 1381 1380 1382 1381 1380 1381 1385 1388 1390 1394 1397 1399 1403 1406 1410 1411 1413 1416
1435 1426 1423 1406 1410 1410 1410 1412 1415 1415 1414 1413 1413 1410 1399 1409 1408 1406 1402 1398 1390 1384 1379 1376 1374 1373 1373 1372 1373 1373 1374 1375 1378 1381 1382 1385 1389 1392 1394 1397 1400 1403 1404 1407
1431 1423 1413 1409 1411 1411 1414 1419 1418 1418 1416 1414 1413 1414 1412 1410 1408 1405 1402 1397 1388 1380 1375 1370 1368 1368 1367 1369 1366 1367 1368 1369 1372 1375 1379 1381 1381 1383 1387 1389 1392 1394 1396 1399
1425 1424 1422 1412 1410 1411 1419 1419 1419 1419 1418 1416 1414 1413 1412 1409 1405 1401 1398 1394 1389 1378 1373 1369 1366 1364 1364 1362 1357 1359 1360 1361 1366 1368 1370 1374 1376 1377 1380 1383 1386 1386 1388 1392
1410 1408 1413 1414 1416 1420 1422 1422 1423 1422 1419 1417 1414 1413 1411 1407 1403 1398 1393 1395 1391 1380 1374 1370 1366 1366 1362 1361 1357 1359 1360 1358 1362 1366 1367 1369 1373 1373 1376 1380 1381 1383 1381 1386
1410 1406 1411 1416 1419 1421 1423 1424 1423 1421 1418 1416 1414 1412 1410 1406 1401 1396 1391 1390 1392 1385 1375 1375 1370 1367 1365 1363 1360 1361 1361 1359 1363 1365 1365 1366 1372 1375 1373 1374 1378 1383 1376 1384
1406 1406 1413 1419 1421 1422 1422 1422 1422 1420 1418 1415 1414 1413 1411 1407 1402 1395 1391 1391 1393 1385 1378 1379 1377 1371 1366 1367 1365 1362 1362 1363 1366 1368 1368 1368 1371 1376 1377 1373 1374 1383 1384 1385
1406 1413 1416 1417 1420 1420 1419 1418 1416 1415 1414 1413 1411 1409 1407 1404 1403 1399 1388 1395 1395 1390 1382 1378 1380 1374 1371 1368 1367 1364 1365 1368 1369 1371 1374 1372 1369 1374 1383 1378 1376 1387 1389 1392
1414 1417 1418 1419 1420 1419 1419 1417 1416 1415 1414 1413 1412 1410 1407 1404 1401 1398 1390 1395 1397 1392 1386 1385 1385 1376 1375 1376 1363 1363 1366 1368 1371 1373 1374 1377 1369 1378 1377 1378 1383 1388 1391 1394
1416 1416 1416 1418 1418 1418 1418 1416 1415 1414 1413 1412 1411 1409 1407 1404 1401 1398 1399 1396 1397 1395 1389 1385 1382 1384 1386 1381 1377 1372 1372 1376 1377 1382 1381 1381 1385 1385 1386 1386 1390 1394 1397 1399
1416 1417 1417 1417 1416 1416 1415 1415 1415 1413 1412 1411 1410 1409 1408 1405 1404 1405 1403 1400 1401 1397 1394 1393 1392 1391 1388 1384 1384 1382 1384 1387 1387 1390 1390 1391 1392 1393 1393 1394 1396 1399 1400 1404
1417 1416 1415 1415 1415 1416 1416 1415 1416 1415 1413 1413 1413 1412 1411 1409 1409 1409 1406 1406 1403 1401 1403 1402 1400 1397 1397 1396 1397 1395 1395 1392 1393 1394 1395 1396 1398 1400 1401 1400 1402 1403 1405 1407
1416 1417 1417 1416 1416 1416 1417 1416 1417 1416 1416 1416 1418 1418 1417 1414 1415 1412 1412 1410 1410 1409 1411 1409 1407 1406 1403 1403 1404 1400 1400 1399 1398 1398 1399 1400 1403 1404 1404 1404 1403 1405 1405 1407
1418 1417 1416 1416 1417 1417 1418 1419 1419 1418 1418 1419 1420 1421 1421 1419 1419 1418 1418 1418 1419 1418 1417 1416 1413 1413 1411 1407 1405 1405 1405 1405 1403 1402 1402 1402 1404 1406 1409 1410 1411 1411 1409 1408
1420 1418 1418 1419 1418 1418 1421 1421 1421 1421 1422 1423 1423 1424 1425 1425 1424 1424 1425 1424 1422 1420 1420 1419 1417 1416 1413 1410 1410 1409 1408 1408 1408 1406 1405 1406 1407 1407 1410 1412 1414 1414 1413 1411
1421 1421 1421 1421 1422 1423 1424 1426 1425 1426 1427 1428 1429 1430 1429 1429 1429 1429 1428 1426 1425 1425 1424 1422 1420 1418 1417 1415 1413 1411 1411 1411 1409 1409 1409 1410 1410 1409 1410 1412 1413 1414 1415 1411
1424 1426 1426 1427 1427 1429 1430 1431 1432 1432 1433 1434 1434 1433 1433 1433 1433 1433 1432 1429 1429 1428 1426 1424 1422 1421 1420 1419 1417 1416 1414 1411 1412 1413 1411 1412 1412 1412 1411 1413 1412 1412 1414 1413
1431 1431 1431 1432 1433 1434 1436 1437 1437 1438 1438 1438 1438 1439 1439 1438 1437 1436 1434 1433 1432 1431 1429 1428 1426 1425 1424 1422 1420 1419 1417 1416 1416 1415 1414 1415 1414 1414 1413 1413 1412 1413 1414 1411
1435 1436 1437 1438 1438 1439 1440 1441 1441 1441 1442 1442 1442 1442 1441 1441 1441 1441 1438 1437 1435 1434 1432 1431 1429 1428 1427 1424 1423 1421 1420 1419 1418 1417 1416 1415 1415 1414 1413 1413 1412 1411 1410 1408
1440 1441 1442 1443 1443 1444 1444 1445 1445 1445 1445 1444 1444 1444 1445 1445 1443 1442 1440 1439 1437 1436 1434 1433 1431 1430 1427 1425 1424 1422 1421 1420 1419 1418 1417 1416 1415 1414 1413 1412 1411 1409 1407 1405
1443 1444 1445 1446 1446 1447 1447 1447 1447 1447 1447 1446 1446 1446 1446 1445 1445 1443 1442 1440 1439 1437 1436 1434 1432 1430 1428 1427 1425 1424 1422 1421 1420 1418 1416 1415 1414 1413 1412 1410 1409 1407 1405 1403
1446 1446 1446 1447 1448 1448 1448 1449 1450 1450 1449 1448 1447 1447 1446 1446 1445 1444 1442 1441 1439 1438 1436 1435 1433 1431 1429 1427 1425 1424 1422 1421 1419 1417 1416 1414 1413 1411 1410 1408 1406 1404 1402 1400
1447 1447 1448 1448 1448 1448 1448 1449 1449 1448 1449 1449 1448 1447 1446 1445 1444 1443 1442 1441 1439 1438 1436 1434 1432 1431 1429 1427 1425 1423 1421 1419 1418 1416 1414 1412 1410 1409 1407 1405 1403 1401 1398 1396
Wind_Speed
2 2 1 3 5 4 8 8 7 6 10 9 7 8 13 19 20 17 16 14 12 14 12 13 17 21 25 27 29 32 34 37 44 44 42 40 40 40 40 42 44 42 45 46
2 3 3 5 6 8 7 9 9 11 12 1 10 12 11 16 19 21 21 18 18 13 13 15 18 21 24 27 29 29 33 36 35 37 41 43 40 40 40 42 41 40 42 42
8 2 3 7 13 10 7 7 7 8 2 7 10 10 14 19 16 16 20 25 21 19 15 14 16 20 23 26 24 29 31 32 32 33 35 36 36 35 37 38 37 39 41 40
4 2 7 1 4 2 5 5 5 4 7 7 9 14 15 9 18 20 20 22 25 24 23 20 16 16 19 21 25 28 30 30 31 31 32 30 30 32 31 30 30 30 31 33
5 10 8 6 6 5 7 4 4 4 6 8 10 13 10 12 18 21 24 23 21 22 23 26 25 22 19 20 24 26 29 28 28 29 29 29 30 29 27 26 25 27 26 26
5 7 6 3 7 2 2 5 6 7 9 9 11 5 4 20 21 23 25 23 21 21 22 21 21 21 20 18 17 23 23 22 23 25 27 27 26 25 24 23 23 23 21 24
10 7 4 8 2 4 7 3 14 15 13 11 6 5 14 17 19 21 23 25 23 20 19 20 22 19 16 14 12 15 19 17 19 19 20 21 24 27 24 21 21 23 23 26
11 8 8 4 3 3 6 8 13 15 14 12 13 13 12 16 17 18 23 27 24 20 21 20 18 12 6 11 12 14 16 15 18 20 21 21 20 20 20 20 21 21 20 22
8 6 6 8 11 7 7 6 9 12 14 12 10 10 12 13 14 15 18 23 23 19 17 16 14 7 2 2 3 5 9 13 15 19 21 20 19 18 16 16 17 18 16 18
2 4 4 4 6 9 8 7 8 9 11 12 13 12 11 11 15 16 18 19 21 19 15 13 13 9 5 3 5 8 11 14 16 16 17 16 14 12 13 11 10 12 11 12
7 8 5 6 4 8 9 8 8 9 9 10 11 10 12 13 13 15 17 17 18 15 15 12 13 9 7 4 4 9 11 13 13 12 11 13 12 10 9 13 11 9 13 15
5 5 3 3 4 6 7 10 11 13 13 12 12 10 9 9 11 14 24 16 13 12 9 8 9 9 8 6 8 11 14 14 14 14 15 16 16 18 16 16 17 12 11 8
1 3 7 8 2 3 4 6 8 9 11 10 10 9 8 7 8 11 8 5 10 13 13 12 12 13 13 7 8 12 15 13 13 15 17 17 20 19 22 22 18 15 13 11
3 7 5 3 1 5 6 6 7 7 9 9 8 8 8 9 10 12 14 14 12 13 16 18 18 19 17 15 13 15 17 18 19 19 22 23 22 23 22 22 21 20 18 15
6 5 6 2 4 6 6 5 5 6 7 9 9 10 11 14 17 17 18 21 21 23 25 25 25 25 22 21 21 23 23 23 22 21 21 21 20 19 19 18 18 17 15 12
9 4 3 2 3 6 5 4 4 7 9 12 14 16 18 21 22 22 22 22 24 28 26 25 25 24 22 22 22 22 21 20 19 18 17 16 15 15 15 14 13 12 10 9
5 3 3 4 4 5 7 7 8 9 12 15 14 16 18 22 24 25 25 25 24 25 23 23 22 19 18 18 17 18 18 16 15 15 15 14 13 13 12 12 10 9 8 7
5 5 4 5 7 10 10 11 12 14 16 18 19 20 21 22 24 24 23 22 21 21 22 20 18 16 15 16 16 15 14 14 13 14 13 13 12 11 11 10 10 9 8 6
7 9 10 11 12 14 15 16 18 20 21 21 20 21 21 21 20 19 17 17 18 19 19 16 14 13 13 14 12 12 12 11 12 12 12 11 10 11 10 9 8 8 7 6
14 15 16 17 18 19 21 20 20 21 20 19 20 19 19 19 17 15 14 18 20 17 13 12 12 12 12 11 10 11 10 10 11 11 10 10 10 10 9 7 7 6 6 6
18 19 21 22 23 21 21 20 20 20 18 16 16 16 15 14 12 12 13 15 15 13 12 11 12 12 12 12 11 11 11 12 12 11 11 10 9 8 8 7 6 6 5 5
19 21 21 21 21 21 19 18 17 17 15 15 15 13 12 12 11 12 12 13 12 11 11 11 12 12 11 10 10 10 10 10 10 9 9 8 7 7 6 5 5 4 4 5
20 20 20 19 19 18 15 13 13 11 11 10 10 9 9 9 8 7 9 12 11 11 11 11 11 11 10 11 11 11 11 10 10 9 8 7 7 6 5 5 5 6 7 7
18 17 17 15 14 12 13 11 10 9 8 8 7 7 7 7 8 9 10 10 10 10 10 10 10 10 10 10 10 9 9 8 8 8 7 7 6 6 6 7 8 8 10 11
13 12 10 9 9 9 9 8 7 7 6 6 7 7 7 7 6 7 7 8 8 9 9 9 9 8 8 8 8 8 8 7 8 8 7 7 8 8 8 9 10 11 12 12
8 7 7 7 7 6 6 5 5 5 5 5 5 5 5 6 6 6 7 7 7 8 8 8 9 9 8 8 8 8 8 8 9 9 9 9 9 10 11 11 12 12 12 12
7 8 6 6 5 5 4 4 4 4 5 5 4 4 4 4 5 5 6 7 7 8 9 9 9 9 9 9 9 10 10 10 10 10 10 11 11 11 12 12 12 12 12 12
Wind_Direction
81 83 111 150 181 193 226 242 248 253 240 250 278 321 306 311 313 322 322 295 273 268 261 242 232 227 224 222 221 216 217 221 228 231 231 230 230 232 234 235 239 243 243 243
187 163 215 250 236 246 244 236 251 252 259 27 301 301 318 318 315 316 321 314 315 292 284 265 245 240 236 232 229 223 222 230 227 228 231 233 233 233 233 237 240 241 242 244
253 190 281 267 235 233 204 204 226 222 238 331 309 324 339 331 336 332 322 315 314 315 316 302 275 259 242 236 226 230 233 231 227 227 228 228 228 228 233 236 239 241 244 244
258 236 241 64 331 218 220 217 219 310 339 334 318 311 315 1 348 342 332 320 310 307 300 299 299 284 267 240 232 235 237 234 230 226 226 225 224 228 228 230 234 239 242 243
224 218 293 260 189 207 208 144 53 22 360 345 329 309 273 13 358 342 335 325 314 307 300 291 288 289 268 252 236 232 233 231 229 226 223 221 223 226 227 226 229 234 242 247
202 231 223 100 97 17 194 204 38 358 351 340 338 298 345 350 345 341 338 335 331 323 312 301 296 286 278 265 239 232 229 225 225 221 221 217 218 219 221 222 229 236 240 248
224 243 258 268 281 217 224 44 343 341 326 320 319 346 317 332 345 346 345 339 342 349 343 316 302 294 276 261 241 235 227 219 215 213 217 213 207 215 226 227 226 232 238 245
227 225 247 348 228 227 15 350 348 332 326 309 298 310 321 330 344 354 351 347 348 357 356 350 331 315 272 252 247 245 238 228 222 219 216 219 213 210 213 218 221 222 229 237
203 214 94 67 79 62 23 3 355 344 347 341 330 331 340 347 352 356 358 350 347 354 357 9 22 355 321 160 154 196 194 182 191 190 184 189 194 193 201 211 218 221 222 229
195 180 170 127 83 47 27 15 8 6 3 4 356 356 356 357 357 357 347 348 344 346 2 359 29 46 69 103 140 169 168 157 166 170 163 163 175 185 190 198 210 212 191 187
239 249 122 120 55 3 355 355 357 2 360 356 356 357 357 356 359 8 2 346 343 358 358 354 357 33 81 97 150 157 148 144 144 145 149 149 142 131 140 138 132 157 150 152
265 48 2 100 34 348 355 358 359 360 358 359 357 351 344 355 356 351 350 344 350 360 15 8 3 29 47 110 143 148 139 136 136 134 132 134 132 129 120 114 115 128 129 140
329 280 288 298 169 26 13 352 358 360 5 4 2 8 18 19 16 20 50 32 23 35 46 42 26 38 44 49 87 123 125 119 127 130 123 117 118 121 120 109 118 120 124 128
341 326 285 329 324 9 1 346 354 11 18 16 25 33 47 57 60 61 59 66 63 64 62 63 59 56 57 63 81 93 108 111 111 104 107 104 104 106 106 107 108 100 98 100
355 348 310 259 318 344 346 2 14 27 35 38 56 73 82 86 82 80 84 86 84 81 78 76 76 74 74 77 79 86 93 95 95 95 93 94 93 93 96 98 99 97 96 92
322 328 189 247 332 348 1 30 59 69 78 80 81 84 89 92 91 88 86 87 83 75 74 74 74 75 75 75 79 84 85 89 92 92 91 90 90 92 94 96 98 97 92 83
329 154 41 64 61 65 68 77 98 109 104 98 92 97 94 93 92 88 84 83 82 81 76 74 70 70 72 73 75 77 79 80 83 87 87 86 85 84 82 85 91 91 87 87
67 73 84 109 110 101 93 97 101 108 107 113 112 108 103 98 93 91 89 88 86 82 75 69 66 66 67 67 65 67 69 70 72 76 80 79 77 78 74 72 70 71 66 62
86 91 92 98 104 110 113 111 111 112 115 115 113 104 100 97 97 96 98 91 80 72 62 58 54 52 54 56 56 59 61 63 64 66 69 72 71 72 70 68 64 58 53 48
92 96 100 106 111 112 112 112 114 114 113 111 109 107 100 95 92 86 76 71 65 57 49 46 43 43 47 48 50 55 60 66 65 65 68 65 66 66 61 58 61 52 43 41
103 110 110 110 108 108 109 111 112 110 110 110 105 99 95 91 84 75 62 58 52 42 36 36 41 46 46 48 50 55 57 58 61 61 61 58 57 57 56 49 42 38 33 30
113 112 110 111 110 108 109 109 107 108 105 99 94 90 84 74 63 59 60 59 49 45 46 52 55 54 53 55 59 61 62 63 63 63 61 60 57 51 46 39 33 20 7 0
112 112 112 112 112 112 114 111 108 106 104 100 93 86 80 74 70 64 54 54 53 48 49 53 53 53 53 56 57 56 56 55 54 51 46 41 35 30 20 7 357 346 337 333
116 116 113 111 109 106 100 98 100 99 95 92 85 84 77 69 65 61 55 51 45 44 44 44 41 39 38 41 40 38 37 34 31 24 17 10 2 352 341 333 329 326 323 322
120 116 112 108 104 102 104 102 96 93 90 87 82 74 74 81 82 68 56 44 40 38 35 33 28 24 26 25 22 19 15 9 2 355 350 342 335 331 328 325 323 320 317 317
127 123 122 125 116 111 108 109 111 105 98 93 89 87 84 78 65 53 41 35 30 27 23 19 16 13 10 5 359 354 349 344 341 337 332 329 326 325 324 322 320 320 319 319
122 110 105 106 114 118 122 122 118 111 110 112 104 83 68 52 41 33 26 20 13 9 7 3 360 357 352 347 344 340 336 332 330 327 325 323 322 321 321 321 320 321 321 322